Regional Weather Roundup
Issued by NWS

Home | Current Version | Previous Version | Text Only | Print | Product List | Glossary Off
Versions: 1 2 3 4 5 6 7 8 9 10 11 12 13 14 15 16 17 18 19 20 21 22 23 24 25 26 27 28 29 30 31 32 33 34 35 36 37 38 39 40 41 42 43 44 45 46 47 48 49 50

000
ASUS43 KLOT 221303
RWRIL

ILLINOIS REGIONAL WEATHER ROUNDUP
NATIONAL WEATHER SERVICE CHICAGO/ROMEOVILLE IL
800 AM CDT TUE MAY 22 2018

NOTE: "FAIR" INDICATES FEW OR NO CLOUDS BELOW 12,000 FEET WITH NO
SIGNIFICANT WEATHER AND/OR OBSTRUCTIONS TO VISIBILITY.

* THESE STATIONS ARE NOT UNDER NWS QUALITY CONTROL. THEY ALSO MAY NOT
  REPORT WEATHER SUCH AS PRECIPITATION OR FOG.

ILZ001-002-007-009-015-016-024-221400-
NORTHWEST ILLINOIS

CITY           SKY/WX    TMP DP  RH WIND       PRES   REMARKS
MOLINE         FAIR      64  60  87 CALM      30.04R
$$

ILZ003-004-008-010-011-017-018-221400-
NORTH CENTRAL ILLINOIS

CITY           SKY/WX    TMP DP  RH WIND       PRES   REMARKS
ROCKFORD       CLOUDY    57  55  93 CALM      30.04F FOG
FREEPORT*      FOG       56  56 100 N3        30.06R VSB 3/4
ROCHELLE*      CLOUDY    60  60 100 NW7       30.04R FOG
DE KALB*       CLOUDY    59  59 100 NW6       30.04R FOG
$$

ILZ005-006-012>014-019>023-221400-
NORTHEAST ILLINOIS

CITY           SKY/WX    TMP DP  RH WIND       PRES   REMARKS
CHICAGO-OHARE  CLOUDY    57  54  89 N5        30.02R FOG
CHICAGO-MIDWAY CLOUDY    58  57  97 N5        30.02R FOG
AURORA         CLOUDY    62  61  96 W6        30.02R FOG
LANSING*       CLOUDY    55  55 100 CALM      30.03R FOG
JOLIET*        CLOUDY    64  64 100 CALM      30.02R FOG
WAUKEGAN       FOG       51  51 100 N3        30.02R VSB 3/4
DUPAGE AIRPORT CLOUDY    60  59  96 NW6       30.02R FOG
KANKAKEE*      FOG       64  63  97 NW5       30.03R VSB 1/2
WHEELING       CLOUDY    55  54  96 N3        30.04R
MORRIS*        CLOUDY    63  63  99 NW7       30.02R
NORTHERLY ISL    N/A     50  49  96 N6          N/A
$$

LMZ740>746-221400-
SOUTHERN LAKE MICHIGAN

STATION/POSITION SKY/WX   TEMP    WIND        PRES    VSBY  WAVE
                          AIR SEA DIR/SP/G                  HT/PER
                          (F)     (DEG/KT/KT) (MB)    (MI)  (FT/S)
WILMETTE HARBOR            45 47  360/  8/ 10   N/A           1/ 3
HARRISON CRIB              49     340/  6/  7   N/A
BURNHAM HARBOR             51     350/  3/  9   N/A
CALUMET HARBOR             50      20/  4/  5 1016.2R
BURNS HARBOR               49        CALM     1017.6R
MICHIGAN CITY 6N           47 53  290/  2/  2   N/A           1/ 2
ST. JOSEPH                 50 53   CALM  /  2 1017.1R         1
$$

ILZ025>027-034>036-040-047-049-050-058-095>099-221400-
WEST-CENTRAL ILLINOIS

CITY           SKY/WX    TMP DP  RH WIND       PRES   REMARKS
QUINCY         CLOUDY    66  62  87 CALM      30.06R
GALESBURG*     CLOUDY    60  60 100 CALM      30.06R FOG
MACOMB*        CLOUDY    62  61  96 CALM      30.07R FOG
JACKSONVILLE*  CLOUDY    66  63  90 CALM      30.05R
PITTSFIELD*    CLOUDY    67  64  90 N3        30.07R
$$

ILZ028>032-037-038-041>044-048-051>054-059>061-221400-
CENTRAL ILLINOIS

CITY           SKY/WX    TMP DP  RH WIND       PRES   REMARKS
BLOOMINGTON    FAIR      68  63  84 N6        30.04R
DECATUR        FAIR      71  67  87 N7        30.03R
PEORIA         FAIR      66  61  84 VRB5      30.04R HAZE
LACON*         CLOUDY    62  60  94 NW6       30.03S FOG
LINCOLN*       FAIR      71  65  81 CALM      30.04R
SPRINGFIELD    FAIR      69  66  90 N6        30.04R
TAYLORVILLE    NOT AVBL
$$

ILZ033-039-045-046-055>057-062-063-221400-
EAST-CENTRAL ILLINOIS

CITY           SKY/WX    TMP DP  RH WIND       PRES   REMARKS
CHAMPAIGN      FAIR      71  66  84 NW7       30.03R
DANVILLE*      CLOUDY    68  68 100 CALM      30.00R FOG
RANTOUL*       FAIR      72  68  88 NW6       30.03R
MATTOON        PTSUNNY   70  69  97 SW5       30.02R FOG
$$

ILZ079-100>102-221400-
SOUTHWEST ILLINOIS

CITY           SKY/WX    TMP DP  RH WIND       PRES   REMARKS
ALTON          MOSUNNY   68  64  88 NW8       30.05R
BELLEVILLE     CLOUDY    71  65  81 NW6       30.03R
CAHOKIA*       MOSUNNY   72  64  76 NW6       30.05R
SPARTA*        PTSUNNY   68  68 100 W5        30.06R FOG
$$

ILZ064>066-069>071-074>076-080>082-084>086-088>090-092>094-221400-
SOUTH-CENTRAL ILLINOIS

CITY           SKY/WX    TMP DP  RH WIND       PRES   REMARKS
CARBONDALE     FAIR      71  70  96 SW3       30.05R
CAIRO*         CLOUDY    72  71  98 S3        30.06R FOG
MARION         SUNNY    N/A N/A N/A S7        30.06R
CENTRALIA*     MOSUNNY   71  69  93 CALM      30.03S FOG
SALEM*         CLOUDY    71  69  94 W5        30.04R FOG
$$

ILZ067-068-072-073-078-083-087-091-221400-
SOUTHEAST ILLINOIS

CITY           SKY/WX    TMP DP  RH WIND       PRES   REMARKS
LAWRENCEVILLE  PTSUNNY   73  70  90 S9        30.04R FOG
FLORA*         CLOUDY    71  70  96 SW6       30.04R FOG
FAIRFIELD*     CLOUDY    70  70  99 SW5       30.04R
HARRISBURG*    FAIR      70  70 100 SW5       30.05S
ROBINSON*      FAIR      72  71  96 CALM      30.04S
CARMI*         FAIR      72  72  99 SW6       30.04S
$$

ABBREVIATIONS USED IN REMARKS
   TC - TEMPERATURE IN CELSIUS
  WCI - WIND CHILL INDEX
   HX - HEAT INDEX
  VSB - VISIBILITY
$$





USA.gov is the U.S. government's official web portal to all federal, state and local government web resources and services.